{"data":{"norad_id":58632,"epoch":"2026-09-19T17:00:34.983936Z","epoch_age_seconds":218073,"freshness":"STALE","line1":"1 58632U 23203Q   26262.70873824  .00000005  00000+0  97222-5 0  9992","line2":"2 58632  43.0020  54.8474 0001364 268.3563  91.7132 15.27575746154422","mean_motion":15.27575746,"eccentricity":0.0001364,"inclination_deg":43.002,"raan_deg":54.8474,"arg_perigee_deg":268.3563,"mean_anomaly_deg":91.7132,"bstar":9.7222e-6,"rev_number":15442,"period_min":94.267011228129,"perigee_km":482.12596655461,"apogee_km":483.99770159655,"semimajor_km":6861.1988340756,"source":"CELESTRAK","updated_at":"2026-09-21T09:00:33.939667Z"}}